Location: Palau
(42.3086°N, 3.1507°E)
Time: 21:14:23
(UTC+00:00)

Envisat - Visible Passes

Search period start: 26 February 2021 00:00
Search period end: 08 March 2021 00:00
Orbit: 764 x 766 km, 98.1° (Epoch: 26 February)

Date Brightness Start Highest point End Pass type
(mag) Time Alt. Az. Time Alt. Az. Time Alt. Az.
26 Feb 4.8 04:47:55 10° NNE 04:52:28 32° E 04:57:00 10° SSE visible
27 Feb 6.0 04:12:29 10° NE 04:15:19 15° E 04:18:08 10° SE visible
27 Feb 3.0 05:49:45 10° N 05:54:48 66° WNW 05:59:49 10° SSW visible
28 Feb 3.7 05:12:58 10° NNE 05:17:59 57° E 05:22:58 10° S visible
28 Feb 6.6 18:10:29 10° WSW 18:12:31 12° W 18:14:34 10° WNW visible
01 Mar 5.3 04:36:45 10° NE 04:40:58 26° E 04:45:10 10° SSE visible
02 Mar 6.2 04:02:09 10° ENE 04:03:45 11° E 04:05:21 10° ESE visible
02 Mar 3.0 05:38:17 10° NNE 05:43:24 83° WNW 05:48:28 10° SSW visible
03 Mar 4.2 05:01:39 10° NNE 05:06:32 44° E 05:11:21 10° S visible
04 Mar 5.6 04:25:41 10° NE 04:29:27 20° E 04:33:11 10° SE visible
05 Mar 3.2 05:26:52 10° NNE 05:31:58 78° ESE 05:37:03 10° S visible
06 Mar 4.7 04:50:23 10° NNE 04:55:02 35° E 04:59:40 10° SSE visible
07 Mar 6.0 04:14:48 10° NE 04:17:54 16° E 04:21:00 10° SE visible
